sat.trackr.live / text

‹ back to catalog

2025-313AL

NORAD 67282 · 2025-313AL

PAYLOAD ACTIVE UNKNOWN

§ Identity

Operator
Country
TBD
Launch date
2025-12-28
Launch site
VOSTO
Launch vehicle
Mass (kg)
RCS (m²)

External: N2YO · Heavens-Above · Gunter

§ Orbital elements

Epoch: 2026-09-20T17:03:18.435456Z

Period
94.49 min
Inclination
97.3849°
Eccentricity
0.0011499
Mean motion
15.23986213 rev/d
Perigee alt
485.9 km
Apogee alt
501.7 km
Semi-major
6,872.0 km
B*
1.3684e-4
RAAN
336.9996°
Arg perigee
30.7019°
Mean anomaly
329.4889°
Rev number
4,050

§ Raw data

2025-313AL1 67282U 25313AL  26263.71063004  .00003247  00000+0  13684-3 0  99992 67282  97.3849 336.9996 0011499  30.7019 329.4889 15.23986213 40508

JSON: /api/v1/satellites/67282 · /tle

For live sub-satellite position, see the globe view (requires WebGL).

§ Visibility from observer

Set your observer location to see the next 7 days of passes ≥ 10°. The values pass through the URL so the page stays shareable.

No JS? Fill the form by hand. The geolocation button needs JavaScript.